Location: Newark
(40.9833°N, 0.0333°W)
Time: 02:44:58
(UTC+00:00)

Transit 2A Rocket - Pass Details

Date: 31 October 2020
Orbit: 588 x 914 km, 66.7° (Epoch: 26 November)

Event Time Altitude Azimuth Distance (km) Brightness Sun altitude
Rises 06:56:36 0° 151° (SSE) 3,529 9.4 3.8°
Reaches altitude 10° 07:01:00 10° 121° (ESE) 2,597 10.2 4.6°
Maximum altitude 07:03:02 12° 102° (ESE) 2,466 9.7 4.9°
Drops below altitude 10° 07:05:04 10° 82° (E) 2,586 8.9 5.3°
Sets 07:09:24 0° 52° (NE) 3,492 8.8 6.0°
